Location: Unspecified
(0.0000°N, 0.0000°E)
Time: 19:13:20
(UTC+02:00)

BREEZE-M DEB (TANK) - Visible Passes

Search period start: 27 July 2016 00:00
Search period end: 06 August 2016 00:00
Orbit: 320 x 16352 km, 49.4° (Epoch: 27 July)

Date Brightness Start Highest point End Pass type
(mag) Time Alt. Az. Time Alt. Az. Time Alt. Az.
27 Jul 6.9 03:16:08 10° NW 03:47:40 40° NW 03:47:40 40° NW visible
27 Jul 8.0 19:48:48 10° W 21:03:32 24° NNW 23:26:11 10° ENE visible
28 Jul 7.3 04:10:00 10° NW 04:27:26 26° NW 04:27:26 26° NW visible
28 Jul 7.6 20:54:36 10° WNW 23:48:31 27° NNE 00:11:19 15° ENE visible
29 Jul 7.6 05:03:43 10° WNW 05:07:15 13° WNW 05:07:15 13° WNW visible
29 Jul 7.3 22:35:11 10° NW 00:42:21 34° NNE 00:51:10 30° NE visible
31 Jul 7.1 00:03:26 10° NNW 01:31:02 43° NE 01:31:02 43° NE visible
31 Jul 8.4 17:12:20 10° WSW 17:46:07 48° NW 20:36:37 10° NE visible
01 Aug 7.0 01:09:32 10° NNW 02:10:57 51° N 02:10:57 51° N visible
01 Aug 8.5 17:58:12 10° W 18:41:37 37° NW 21:33:34 10° NE visible
02 Aug 7.1 02:08:20 10° NW 02:50:53 45° NNW 02:50:53 45° NNW visible
02 Aug 8.1 18:47:41 10° W 19:47:24 28° NW 22:27:21 10° NE visible
03 Aug 7.4 03:04:23 10° NW 03:30:51 32° NW 03:30:51 32° NW visible
03 Aug 7.8 19:45:23 10° WNW 22:43:55 27° NNE 23:14:51 13° ENE visible
04 Aug 7.7 03:59:34 10° NW 04:10:51 19° WNW 04:10:51 19° WNW visible
04 Aug 7.5 21:04:54 10° NW 23:41:56 32° NNE 23:54:53 27° NE visible
